Location: WHS+Essen
(51.3947°N, 6.9794°E)
Time: 02:46:27
(UTC+02:00)

ISS - Pass Details

Date: 27 March 2019
Orbit: 408 x 410 km, 51.6° (Epoch: 26 April)

Event Time Altitude Azimuth Distance (km) Brightness Sun altitude
Rises 21:43:18 0° 276° (W) 2,338 0.9 -24.5°
Reaches altitude 10° 21:45:23 10° 277° (W) 1,476 -0.3 -24.7°
Enters shadow 21:47:01 27° 277° (W) 829 -1.8 -24.9°
